RH
72 74 76 76 74 72 72 73 73 73 72 71 68 62 58 56 55 57 58 60 61 55 48 48 53 55 54 63 77 81 79 79 79 77 72 71 72 75 79 81 77 76
71 70 72 74 74 74 73 72 72 71 70 71 72 70 69 65 61 62 63 60 57 54 48 44 45 49 52 61 75 80 77 74 70 62 61 65 68 72 76 78 78 78
75 71 71 73 74 73 72 71 71 71 71 71 73 75 74 72 70 71 69 61 58 61 57 49 47 50 53 61 70 72 70 67 58 52 57 60 62 68 72 74 78 80
78 75 71 72 75 74 71 71 71 72 71 71 76 78 76 75 75 76 73 67 64 66 64 60 59 60 61 64 65 63 62 58 48 49 60 63 63 66 69 75 81 80
78 78 73 68 71 74 73 71 72 73 70 71 76 80 80 79 76 73 72 71 69 67 65 63 63 64 66 68 68 66 63 57 48 50 59 62 64 65 66 75 80 77
79 76 76 70 68 72 72 70 72 73 72 72 75 80 82 79 75 72 68 69 70 67 65 65 64 65 67 69 70 70 67 61 58 60 63 63 65 66 67 71 73 73
85 78 75 71 67 68 69 68 70 71 72 73 74 78 79 74 72 73 69 67 67 64 64 65 64 64 68 69 70 71 68 64 65 68 68 66 67 67 67 69 70 71
90 86 82 77 70 66 66 65 67 70 72 73 72 74 75 72 71 73 71 68 65 63 62 62 60 61 65 67 69 70 67 66 69 71 70 68 66 64 64 67 69 70
94 92 91 87 80 72 68 67 70 75 77 76 73 72 73 73 71 70 70 68 66 64 61 60 59 60 62 64 67 67 65 68 73 73 72 71 67 66 67 69 71 70
94 97 97 93 89 84 77 73 76 81 82 79 76 73 72 71 69 68 67 67 67 65 62 61 61 61 62 62 62 62 64 70 73 73 74 73 72 75 76 74 71 67
85 87 87 84 85 87 83 79 79 81 80 78 76 74 72 70 68 67 66 65 64 63 62 61 62 63 64 64 63 64 68 72 73 74 75 74 74 77 76 72 69 65
79 79 74 70 74 79 81 80 78 79 79 77 74 72 70 69 67 66 66 64 61 60 60 60 61 63 65 66 67 68 70 72 74 75 76 76 76 76 75 74 71 67
84 87 82 75 73 77 81 80 78 79 80 78 75 72 69 68 65 63 64 63 60 59 59 59 60 62 64 66 68 70 72 75 76 76 77 77 78 76 76 75 72 68
86 88 88 83 79 79 83 84 81 78 78 78 75 71 69 67 65 61 61 62 61 60 59 59 60 62 64 65 66 70 73 76 77 78 78 79 79 76 77 77 74 71
86 85 86 86 85 84 84 83 82 79 79 78 74 70 68 67 65 63 61 61 61 59 59 59 60 63 65 66 66 68 72 76 78 79 79 80 78 77 78 78 76 73
85 84 85 86 87 88 86 85 88 87 82 77 73 70 69 67 65 64 62 61 61 60 59 59 60 61 63 65 68 68 72 77 78 79 80 79 79 79 79 78 76 74
85 85 86 87 89 90 87 90 95 90 80 76 73 69 69 68 66 64 62 62 61 61 60 60 60 60 60 62 65 67 72 77 78 78 80 80 79 79 79 80 79 77
85 84 85 85 86 87 86 90 94 88 80 80 76 70 68 68 67 65 63 62 62 61 61 60 60 60 60 60 61 64 69 75 78 80 81 81 82 82 81 81 82 82
83 81 83 84 83 84 85 88 90 86 83 83 79 74 70 68 68 68 64 62 62 61 60 60 60 60 60 60 61 62 66 72 78 81 80 80 80 83 86 84 82 83
85 80 81 84 85 84 84 86 86 85 84 83 81 79 73 67 67 69 67 64 61 60 60 60 59 60 60 60 61 62 63 69 76 77 77 74 72 77 86 86 82 79
85 82 81 82 85 87 86 86 86 87 87 86 84 82 80 74 69 70 71 69 65 62 60 60 59 60 60 60 62 63 62 67 73 76 77 76 73 78 86 85 79 75
77 78 78 79 82 86 89 90 88 89 90 90 87 84 84 82 76 74 78 79 74 67 62 61 60 60 60 60 62 64 65 69 74 76 76 73 74 82 86 81 75 73
70 71 73 75 77 81 87 90 90 90 91 93 92 87 85 85 83 83 87 89 84 75 68 65 62 60 61 61 62 65 67 69 73 77 76 73 75 81 83 78 75 75
76 75 74 73 74 77 81 85 88 89 90 93 95 93 89 87 86 87 90 91 88 80 73 70 68 66 65 64 64 66 67 67 70 73 75 75 75 77 77 76 77 77
88 88 87 85 86 86 85 84 84 86 89 92 94 94 91 89 89 91 91 90 89 85 80 77 74 72 70 69 68 69 70 71 74 77 76 74 73 73 73 74 77 80
97 98 98 97 98 97 94 91 88 88 92 95 95 95 95 94 94 94 93 90 89 89 88 86 82 77 74 73 73 75 76 76 78 79 78 75 72 70 71 74 78 82
Wind_Speed
17 18 20 20 20 21 22 23 23 22 21 20 20 20 20 19 20 21 21 19 17 16 16 17 17 17 17 16 14 15 16 15 16 16 15 15 13 9 7 6 5 5
16 19 20 21 21 22 22 22 23 23 22 21 19 18 17 17 18 20 21 20 17 13 13 16 18 18 17 16 16 17 17 17 16 16 15 15 14 11 9 6 5 6
17 18 20 21 22 22 23 22 22 23 22 21 20 18 17 17 16 17 19 19 15 11 11 13 15 16 16 16 17 18 18 18 17 15 15 14 14 13 10 7 6 7
17 18 19 20 20 21 22 23 23 24 23 22 21 19 18 17 17 17 17 17 15 13 12 12 12 13 14 15 16 17 17 17 16 15 14 13 12 12 10 8 8 9
18 17 18 19 20 19 20 23 24 24 24 24 22 20 19 18 18 18 18 17 16 15 15 15 15 14 14 13 14 14 14 15 14 14 14 12 12 11 10 9 11 10
18 18 18 19 20 20 21 23 24 23 24 24 23 22 20 19 18 18 19 19 18 18 17 16 17 17 15 14 13 13 12 13 13 13 13 12 11 11 11 11 11 11
19 18 18 19 21 21 21 22 23 23 24 24 24 23 22 20 19 19 19 19 19 20 19 19 18 18 17 16 16 15 13 12 12 13 13 12 11 10 11 11 12 12
20 17 16 16 18 19 21 21 21 20 20 21 23 24 22 21 21 20 19 19 19 20 21 22 20 18 19 20 19 17 15 13 12 12 12 12 11 11 10 11 11 11
24 20 17 17 16 16 17 19 20 18 16 17 19 21 22 22 22 22 21 21 20 19 21 22 20 18 19 22 23 21 16 14 13 11 12 12 11 10 9 10 11 12
24 21 19 19 18 17 17 18 19 19 18 17 17 18 21 22 22 22 22 23 23 21 21 21 20 19 18 20 23 23 18 15 15 13 13 13 11 10 10 11 12 13
19 18 17 18 18 19 20 20 21 21 20 19 18 18 20 21 22 22 22 24 25 24 22 21 20 19 18 17 18 19 18 17 16 15 14 14 12 11 12 12 12 13
16 15 16 18 19 20 20 21 23 23 22 21 21 20 21 21 22 23 23 22 23 24 24 23 21 20 20 18 16 16 17 17 16 15 14 14 14 13 12 12 12 13
17 14 13 15 19 21 20 20 22 24 24 24 24 23 23 23 22 22 24 24 23 23 24 23 23 22 21 20 18 18 17 17 17 16 14 15 15 13 12 12 11 12
17 18 16 15 17 21 23 23 23 25 24 23 25 25 24 25 25 22 22 24 25 25 23 22 22 22 23 22 21 21 20 20 20 18 16 16 16 14 13 12 11 10
15 18 19 18 18 21 24 26 27 27 25 22 24 26 24 24 26 26 24 24 25 25 25 23 22 22 23 23 23 24 23 23 22 20 19 19 18 16 15 13 12 11
14 16 18 19 20 21 23 25 25 26 28 28 26 28 28 26 26 28 28 26 26 26 26 26 24 23 23 23 23 23 23 24 23 21 22 22 21 19 18 16 15 14
13 14 16 19 20 21 23 24 23 25 30 33 30 29 29 28 27 28 29 29 28 28 28 28 27 24 23 23 23 23 23 24 23 24 25 25 25 24 22 19 16 16
14 14 15 17 18 20 21 22 23 26 30 32 32 31 29 27 26 27 29 29 30 29 28 29 28 26 24 24 23 23 24 24 26 27 27 25 26 26 23 19 17 17
16 16 15 16 17 18 20 20 22 27 29 29 30 32 32 30 27 26 28 29 30 30 29 29 29 27 25 25 25 24 23 25 28 27 25 24 24 23 21 19 18 17
17 17 17 17 17 17 19 20 22 25 27 28 28 30 33 34 31 27 26 28 30 31 31 31 30 28 26 26 26 25 23 25 28 26 24 24 23 20 20 19 18 17
18 18 19 19 19 19 19 20 21 22 24 25 28 29 31 34 34 30 27 27 29 31 32 32 31 30 29 27 26 25 24 26 27 25 24 24 23 21 21 21 19 18
18 19 20 20 20 20 20 20 20 22 22 23 25 28 30 32 35 34 31 28 27 28 31 32 31 30 30 29 27 25 25 27 27 25 24 24 24 23 23 23 21 19
16 17 19 20 20 20 20 20 19 20 21 21 22 24 27 30 33 34 34 31 27 26 28 30 31 31 31 30 29 27 27 28 28 27 26 26 26 26 26 24 22 20
12 14 15 16 18 19 21 20 20 20 20 20 21 21 22 25 29 31 32 31 31 31 30 29 29 30 31 31 30 29 29 30 30 30 28 28 28 28 27 26 24 22
8 9 11 11 12 14 16 19 19 19 20 19 19 20 20 21 23 25 28 30 32 33 33 32 31 30 30 32 32 31 31 31 31 31 31 31 31 30 29 27 26 23
8 7 9 9 8 8 10 13 15 17 18 17 17 17 17 18 18 20 23 27 30 31 33 35 35 33 31 31 31 31 32 32 31 31 32 32 32 31 30 29 27 25
Wind_Direction
213 208 208 211 210 205 204 205 207 206 205 207 208 208 209 211 213 218 224 228 229 232 231 228 228 230 229 223 226 238 242 246 253 260 266 268 268 272 275 274 263 254
209 207 207 210 212 210 209 210 210 209 208 209 211 214 213 210 213 219 226 232 233 236 236 229 228 231 232 229 233 241 245 248 254 259 261 259 260 260 257 258 258 252
207 206 206 208 211 213 214 214 213 213 212 211 213 219 218 213 212 217 227 232 231 230 231 228 227 233 238 240 243 246 249 252 256 257 255 253 253 253 253 257 257 249
209 206 207 206 207 211 213 212 212 213 213 211 212 216 218 219 218 218 222 225 227 231 233 229 227 234 245 250 252 253 253 254 253 249 248 249 248 250 254 252 244 241
215 210 208 207 206 206 208 208 210 212 212 210 211 212 214 221 225 224 221 222 230 237 237 235 234 236 246 253 255 255 255 254 251 245 246 247 247 251 253 245 240 243
220 216 212 210 208 207 207 207 210 213 213 212 213 213 215 219 221 223 223 224 230 235 235 236 234 233 240 247 252 255 255 254 252 249 250 249 248 251 249 246 247 248
221 218 216 213 210 209 210 210 212 213 213 215 214 214 217 218 214 216 221 226 231 234 234 236 235 233 236 241 246 250 254 260 257 251 252 252 250 249 248 249 251 249
221 215 215 218 215 212 211 209 211 212 215 218 216 214 217 218 217 217 219 224 231 234 234 238 242 243 242 242 243 246 253 262 260 251 253 256 254 251 249 247 247 248
223 216 214 218 217 217 216 211 208 210 215 222 221 218 217 217 220 221 221 223 228 233 233 235 241 245 245 245 244 245 251 257 258 259 261 258 252 247 244 240 242 245
228 227 227 224 216 215 219 217 212 214 219 223 225 225 221 219 219 221 223 226 228 231 231 229 233 239 243 244 241 241 246 251 258 265 263 255 244 237 238 239 243 245
232 240 242 235 223 216 217 217 214 216 220 222 223 224 224 224 223 222 226 229 229 230 229 227 228 232 235 238 236 236 240 246 256 261 256 249 239 236 240 244 248 250
228 238 241 235 227 220 218 215 211 212 219 225 226 225 226 227 226 225 227 229 228 229 231 233 233 230 230 232 234 237 241 245 251 251 246 242 239 239 246 254 257 253
230 234 238 237 231 225 221 217 213 213 220 227 231 231 231 231 228 225 226 227 226 228 233 238 239 234 231 231 234 238 242 243 244 242 237 238 240 243 252 260 262 256
240 237 237 236 234 228 223 220 218 216 217 224 230 231 232 232 230 227 227 229 230 232 234 237 237 235 234 235 235 236 238 241 242 239 235 236 241 245 251 256 258 257
245 241 237 235 235 232 227 224 223 222 222 223 224 225 227 229 230 230 232 233 235 235 236 235 233 233 234 235 236 235 236 240 242 241 238 239 241 242 244 247 250 253
242 240 239 236 234 233 231 230 229 228 229 228 223 221 223 225 227 230 232 234 235 236 236 234 233 235 236 236 237 237 236 237 241 242 242 244 245 244 244 247 249 253
245 239 239 238 236 235 233 234 235 232 229 229 228 224 223 225 226 227 229 232 234 235 235 233 233 237 239 238 239 239 236 235 238 240 241 243 245 245 245 246 246 252
249 246 243 242 240 238 235 235 238 237 231 231 231 229 226 226 226 227 229 231 233 235 234 234 235 238 239 239 240 238 237 236 236 237 238 240 242 242 241 241 244 250
249 250 251 249 245 242 237 234 236 238 236 235 234 232 229 226 226 227 229 230 233 235 234 234 236 238 238 238 239 237 237 237 236 238 240 240 240 238 235 237 243 245
251 249 250 251 250 247 242 236 235 238 238 236 235 234 231 228 226 226 227 229 231 232 233 234 236 237 236 236 236 236 237 238 238 241 243 241 239 236 235 239 241 241
261 255 251 250 248 247 245 241 238 237 237 237 235 234 233 231 228 228 229 229 229 229 231 233 234 236 234 232 230 231 235 238 238 240 243 241 237 233 232 236 240 243
264 261 256 253 249 246 244 243 241 239 238 238 237 235 235 233 231 231 233 231 229 228 229 230 232 234 232 228 226 226 230 234 237 237 240 240 235 229 228 233 240 245
259 257 256 255 253 248 245 245 243 241 239 240 240 238 237 236 234 235 236 234 232 232 231 229 230 231 231 229 227 226 227 231 234 234 235 234 229 226 228 233 239 243
261 253 251 252 252 249 247 247 245 241 238 239 242 242 242 240 238 240 241 237 234 234 234 232 230 229 230 229 228 226 227 229 230 230 228 228 227 228 231 234 236 237
291 267 256 252 249 246 245 245 245 242 239 238 241 244 245 243 241 241 241 239 236 235 235 235 232 229 229 229 228 226 225 225 227 227 225 226 228 230 233 234 234 233
332 306 283 271 261 252 248 247 245 243 241 239 240 243 245 245 245 244 241 240 240 238 236 236 234 230 229 230 229 226 223 223 227 228 229 229 230 231 232 233 232 232